Flag Weather past 2 weeks in Mörfelden-Walldorf, Hesse, Germany

Now
39 °F

Passing clouds.


Feels Like: 34 °F
Forecast: 37 / 47 °F
Wind: 7 mph from East

Location: Frankfurt-M-Flughafen Airport

Current Time: Nov 21, 2014 at 4:13:14 AM

Latest Report: Nov 21, 2014 at 3:20 AM


Visibility: N/A

Pressure: 30.27 "Hg

Humidity: 93%

Dew point: 37 °F

Location of Mörfelden-WalldorfLocation

Historic Weather in Mörfelden-Walldorf — Graph

°F

Mörfelden-Walldorf temperature yesterday

Maximum temperature yesterday: 46 °F (at 10:50 AM)
Minimum temperature yesterday: 39 °F (at 11:50 PM)
Average temperature yesterday: 44 °F

Past Weeks' High & Low Weather Summary

 TemperatureHumidityPressure
High55 °F (Nov 8, 2:50 PM)100% (Nov 6, 3:50 AM)30.33 "Hg (Nov 6, 3:50 AM)
Low34 °F (Nov 7, 4:20 AM)67% (Nov 8, 3:20 PM)29.50 "Hg (Nov 16, 5:50 AM)
Average47 °F90%29.84 "Hg
* Reported Nov 6 2:20 AM — Nov 21 2:50 AM, Mörfelden-Walldorf, Weather by CustomWeather, © 2014

Note: Actual official high and low records may vary slightly from our data, if they occured in-between our weather recording intervals... More about our weather records

Advertising

Mörfelden-Walldorf weather history for previous 24 hours

 ConditionsComfort  
Time TempWeatherWind HumidityBarometerVisibility
2:50 AM
Nov 21
39 °FPassing clouds.8 mph93%30.27 "HgN/A
2:20 AM39 °FPassing clouds.8 mph93%30.27 "HgN/A
1:50 AM39 °FPassing clouds.8 mph93%30.27 "HgN/A
1:20 AM41 °FPassing clouds.7 mph93%30.27 "HgN/A
12:50 AM41 °FPassing clouds.6 mph93%30.27 "HgN/A
12:20 AM41 °FPassing clouds.7 mph93%30.27 "HgN/A
11:50 PM
Nov 20
39 °FPassing clouds.7 mph87%30.27 "HgN/A
11:20 PM41 °FPassing clouds.6 mph87%30.30 "HgN/A
10:50 PM41 °FPassing clouds.7 mph87%30.30 "HgN/A
10:20 PM45 °FPassing clouds.8 mph81%30.30 "HgN/A
9:50 PM43 °FPassing clouds.7 mph87%30.30 "HgN/A
9:20 PM41 °FPassing clouds.8 mph87%30.30 "HgN/A
8:50 PM43 °FPartly cloudy.7 mph87%30.30 "HgN/A
8:20 PM43 °FPassing clouds.12 mph87%30.30 "HgN/A
7:50 PM45 °FPartly cloudy.13 mph81%30.30 "HgN/A
7:20 PM45 °FPassing clouds.12 mph81%30.30 "HgN/A
6:50 PM45 °FPassing clouds.12 mph81%30.30 "HgN/A
6:20 PM45 °FPassing clouds.12 mph81%30.30 "HgN/A
5:50 PM45 °FPassing clouds.10 mph81%30.30 "HgN/A
5:20 PM45 °FPassing clouds.12 mph81%30.30 "HgN/A
4:50 PM46 °FPassing clouds.8 mph76%30.30 "HgN/A
4:20 PM46 °FPartly sunny.7 mph76%30.30 "HgN/A
3:50 PM46 °FPartly sunny.9 mph76%30.30 "HgN/A
3:20 PM46 °FPartly sunny.8 mph76%30.30 "HgN/A
2:50 PM46 °FPartly sunny.9 mph76%30.30 "HgN/A
2:20 PM46 °FPartly sunny.9 mph76%30.30 "HgN/A
1:50 PM46 °FPartly sunny.8 mph76%30.30 "HgN/A
1:20 PM46 °FPartly sunny.8 mph82%30.30 "HgN/A
12:50 PM46 °FPartly sunny.9 mph82%30.30 "HgN/A
12:20 PM46 °FPartly sunny.8 mph82%30.30 "HgN/A
11:50 AM46 °FScattered clouds.8 mph82%30.33 "HgN/A
11:20 AM46 °FPartly sunny.7 mph82%30.33 "HgN/A
10:50 AM46 °FPartly sunny.6 mph87%30.33 "HgN/A
10:20 AM45 °FPartly sunny.7 mph93%30.33 "HgN/A
9:20 AM45 °FPartly sunny.5 mph93%30.33 "Hg5 mi
8:50 AM43 °FPartly sunny.6 mph100%30.30 "Hg5 mi
8:20 AM43 °FPartly sunny.6 mph93%30.33 "Hg6 mi
7:50 AM43 °FBroken clouds.6 mph93%30.30 "Hg4 mi
7:20 AM45 °FPassing clouds.8 mph93%30.30 "Hg5 mi
6:50 AM41 °FLight fog.8 mph93%30.30 "Hg6 mi
6:20 AM43 °FPassing clouds.6 mph93%30.30 "Hg6 mi
5:50 AM45 °FPassing clouds.7 mph93%30.30 "Hg4 mi
5:20 AM45 °FPassing clouds.5 mph93%30.30 "Hg4 mi
4:50 AM41 °FPassing clouds.3 mph100%30.30 "Hg4 mi
4:20 AM41 °FPassing clouds.3 mph93%30.30 "Hg4 mi
Weather by CustomWeather, © 2014

See weather overviewHow to use our weather pages